User: anonymous   Login
Location: Unspecified
(0.0000°N, 0.0000°E)
Time: 05:46:59
(UTC+00:00)
Language:

STARLINK-11077 [DTC] - Orbit

View from above orbital plane
View from above orbital plane
View from above satellite
View from above satellite

Ground track
Ground track

The orbit is defined by the following mean orbital elements,

1 58707U          26145.01513072 +.00000000 +00000-0 +95069-5 0 00001
2 58707  53.1593 257.8567 0000796  76.6023 283.5084 15.69707644    00
Epoch (UTC): 25 May 2026 00:21:47
Eccentricity: 0.0000796
inclination: 53.1593°
perigee height: 359 km
apogee height: 360 km
right ascension of ascending node: 257.8567°
argument of perigee: 76.6023°
revolutions per day: 15.69707644
mean anomaly at epoch: 283.5084°

The dashed part of the orbit path shows where the satellite is in the earth's shadow,  

DLR